Weather History for New Orleans NAS, LA

Change the Weather History Date:

Sunday, October 14, 2012

  Actual Average Record
Temperature  
Mean Temperature 80 °F -  
Max Temperature 86 °F 77 °F 86 °F (2012)
Min Temperature 73 °F 60 °F 54 °F (2000)
Cooling Degree Days 14    
Growing Degree Days 30 (Base 50)    
Moisture  
Dew Point 67 °F    
Average Humidity 65    
Maximum Humidity 84    
Minimum Humidity 47    
Precipitation  
Precipitation 0.00 in - - ()
Sea Level Pressure  
Sea Level Pressure 30.07 in    
Wind  
Wind Speed 5 mph (South)    
Max Wind Speed 10 mph    
Max Gust Speed -    
Visibility 10 miles    
Events      
Averages and records for this station are not official NWS values.
T = Trace of Precipitation, MM = Missing Value Source: NWS Daily Summary

Daily Weather History Graph

Daily Weather History Graph

Search for Another Location

Airport:

Trip Planner

Search our weather history database for the weather conditions in past years. The results will help you decide how hot, cold, wet, or windy it might be!

Date:

Astronomy

Oct. 14, 2012 Rise Set
Actual Time 7:01 AM CDT 6:29 PM CDT
Civil Twilight 6:37 AM CDT 6:54 PM CDT
Nautical Twilight 6:09 AM CDT 7:21 PM CDT
Astronomical Twilight 5:42 AM CDT 7:49 PM CDT
Moon 6:02 AM CDT (10/14) 5:51 PM CDT (10/14)
Length of Visible Light 12h 16m
Length of Day
11h 28m
Waning Crescent, 1% of the Moon is Illuminated
Oct 14
Waning Crescent
Oct 15
New
Oct 21
First Quarter
Oct 29
Full
Nov 6
Last Quarter

Hourly Weather History & Observations

Time (CDT) Temp. Heat Index Dew Point Humidity Pressure Visibility Wind Dir Wind Speed Gust Speed Precip Events Conditions
12:55 AM - - - N/A% 30.10 in 10.0 mi SSE 5.8 mph - N/A   Clear
1:55 AM - - - N/A% 30.09 in 10.0 mi SE 4.6 mph - N/A   Clear
2:55 AM - - - N/A% 30.09 in 8.0 mi Calm Calm - N/A   Clear
3:55 AM - - - N/A% 30.07 in 7.0 mi SE 3.5 mph - N/A   Clear
4:55 AM - - - N/A% 30.06 in 10.0 mi SSE 5.8 mph - N/A   Clear
5:55 AM 73.0 °F - 68.0 °F 84% 30.06 in 10.0 mi SE 3.5 mph - N/A   Scattered Clouds
6:55 AM 75.6 °F - 68.0 °F 77% 30.07 in 10.0 mi SE 5.8 mph - N/A   Mostly Cloudy
7:55 AM 74.8 °F - 69.1 °F 82% 30.10 in 10.0 mi SSE 3.5 mph - N/A   Mostly Cloudy
8:55 AM 78.1 °F - 69.1 °F 74% 30.12 in 10.0 mi SSE 6.9 mph - N/A   Scattered Clouds
9:55 AM 81.5 °F 84.8 °F 69.1 °F 66% 30.14 in 10.0 mi South 10.4 mph - N/A   Mostly Cloudy
10:55 AM 82.6 °F 85.5 °F 68.0 °F 61% 30.15 in 10.0 mi South 6.9 mph - N/A   Mostly Cloudy
11:55 AM 84.7 °F 86.8 °F 66.0 °F 53% 30.14 in 10.0 mi South 6.9 mph - N/A   Mostly Cloudy
12:55 PM 83.3 °F 85.5 °F 66.0 °F 56% 30.11 in 10.0 mi South 6.9 mph - N/A   Mostly Cloudy
1:55 PM 86.9 °F 88.6 °F 64.9 °F 48% 30.06 in 10.0 mi East 3.5 mph - N/A   Mostly Cloudy
2:55 PM 86.0 °F 87.3 °F 64.4 °F 48% 30.03 in 10.0 mi SSW 9.2 mph - N/A   Mostly Cloudy
3:55 PM 86.4 °F 87.6 °F 64.0 °F 47% 30.01 in 10.0 mi SSE 6.9 mph - N/A   Overcast
4:55 PM 84.0 °F 85.4 °F 64.0 °F 51% 30.01 in 10.0 mi South 8.1 mph - N/A   Mostly Cloudy
5:55 PM 81.5 °F 83.6 °F 66.0 °F 59% 30.01 in 10.0 mi South 8.1 mph - N/A   Mostly Cloudy
6:55 PM 79.2 °F - 66.0 °F 64% 30.01 in 10.0 mi South 8.1 mph - N/A   Mostly Cloudy
7:55 PM 77.7 °F - 66.9 °F 69% 30.03 in 10.0 mi SSW 3.5 mph - N/A   Scattered Clouds
8:55 PM 74.8 °F - 68.0 °F 79% 30.04 in 10.0 mi SSW 4.6 mph - N/A   Scattered Clouds
9:55 PM 75.9 °F - 68.0 °F 76% 30.03 in 10.0 mi SSW 3.5 mph - N/A   Scattered Clouds
10:55 PM 75.2 °F - 69.1 °F 81% 30.03 in 10.0 mi SSW 3.5 mph - N/A   Scattered Clouds
11:55 PM - - - N/A% 30.02 in 10.0 mi Calm Calm - N/A   Clear